GFSNW_925_thetae_123.txt.gz
Theta_e
301 301 302 301 303 302 302 300 305 299 299 300 302 307 309 308 307 305 305 306 307 308 310 308 320 310 309 307 307 310 310 313 314 313 312 311 311 313 313 319 318 321 327 315
301 301 301 302 302 302 301 302 297 298 299 308 305 305 307 307 306 305 305 306 307 308 311 312 310 310 306 305 306 310 311 313 317 316 315 313 312 311 310 311 313 318 321 314
301 301 302 301 302 302 302 299 300 297 295 304 308 306 309 307 306 305 305 305 306 306 306 305 308 310 306 305 305 304 309 312 315 319 316 312 312 310 309 312 318 323 314 308
301 301 302 302 302 303 302 301 304 303 301 302 306 308 308 308 306 305 305 306 305 304 305 305 306 308 305 305 304 305 310 313 312 313 312 312 310 309 310 309 313 315 310 306
300 300 301 302 302 303 302 303 307 305 306 303 306 308 309 308 307 305 306 305 305 304 304 304 304 305 306 305 308 310 310 314 315 314 313 312 314 308 309 309 308 307 306 304
299 299 300 301 301 303 303 304 305 306 305 305 305 310 308 308 307 304 304 304 305 305 303 303 304 305 304 304 308 308 312 312 312 315 314 313 316 309 309 307 306 309 311 304
299 300 301 301 301 302 303 304 306 308 310 308 306 307 307 306 305 304 304 304 304 304 303 303 302 302 302 303 303 305 310 310 310 313 315 316 309 307 307 307 305 304 303 301
305 306 306 304 302 302 304 304 306 308 310 306 305 306 306 305 304 305 304 304 304 303 302 301 302 305 306 305 306 308 308 309 312 314 314 311 308 306 306 307 306 303 303 301
306 307 307 309 303 303 304 304 304 307 310 308 306 307 306 307 306 304 304 302 302 302 301 302 305 307 305 308 309 309 308 309 311 312 313 316 310 304 304 305 308 302 302 301
308 309 310 309 303 303 303 303 304 307 309 307 306 307 307 304 303 303 303 303 302 303 302 305 306 308 307 310 311 312 310 310 312 312 312 309 302 302 303 309 308 301 301 301
303 303 303 303 303 302 302 300 304 305 306 304 303 303 304 303 304 303 303 302 302 302 305 306 306 308 308 310 309 309 310 310 310 310 310 311 300 303 307 303 301 300 299 298
300 300 300 300 300 301 302 301 301 301 302 302 300 300 300 301 302 303 303 303 302 302 305 304 305 307 309 307 309 307 308 307 309 307 306 300 299 302 301 300 299 299 297 296
299 300 300 300 300 300 301 300 301 299 300 301 301 301 300 301 302 302 303 303 303 304 307 306 306 307 306 308 308 308 305 304 305 304 300 299 299 300 299 298 297 296 296 295
298 299 299 299 300 300 300 301 301 301 303 303 301 300 301 301 301 302 302 303 303 304 305 306 308 306 307 309 308 308 306 304 303 302 300 299 298 298 297 296 295 294 294 294
297 298 297 299 300 301 300 301 301 302 302 303 303 301 301 301 301 301 301 302 303 304 304 306 306 306 306 305 305 305 303 304 305 309 301 301 297 296 295 294 293 292 291 291
297 297 298 299 299 300 301 304 302 300 300 304 302 301 302 301 301 301 302 302 302 302 303 304 304 305 306 307 306 303 301 301 302 301 299 297 295 294 293 292 292 291 290 289
296 297 298 299 300 301 303 303 301 301 301 306 301 302 301 301 301 301 302 301 302 302 302 302 303 304 305 304 305 302 300 300 299 298 296 295 294 293 293 291 290 289 288 287
295 296 297 298 298 298 298 296 298 301 301 302 303 302 302 301 301 302 301 302 302 302 302 302 303 303 304 303 301 300 299 298 298 297 298 295 294 292 291 289 289 288 287 286
297 298 298 299 299 300 297 297 300 301 302 304 303 303 303 301 302 302 301 301 303 301 303 302 302 304 304 303 302 300 299 299 298 297 296 293 293 292 291 290 289 288 287 286
295 297 299 300 298 295 298 301 303 303 302 302 304 303 302 302 302 302 302 302 302 303 303 302 303 304 302 301 301 299 299 298 298 297 295 294 293 291 291 290 289 287 285 284
298 299 299 297 296 300 301 304 303 302 302 301 301 302 302 302 303 303 302 303 303 304 304 303 303 303 302 301 299 299 298 297 297 296 295 294 293 292 290 288 286 285 283 282
298 298 297 298 300 301 302 300 300 301 301 301 303 302 302 303 302 303 302 302 303 305 303 304 304 304 301 300 299 298 297 297 296 295 295 294 292 290 288 286 284 283 282 279
298 299 298 299 299 302 302 300 301 301 300 302 303 303 302 302 303 303 301 302 304 302 303 303 306 302 299 299 298 297 296 295 295 294 293 291 290 287 285 284 281 278 277 275
300 302 298 300 300 299 300 301 302 299 302 304 303 303 303 301 302 303 301 302 302 303 304 304 304 300 298 296 295 294 291 290 290 289 287 285 283 282 280 279 278 276 276 275
298 298 298 298 298 298 297 297 299 301 303 303 303 303 302 301 301 302 301 301 302 303 304 305 300 296 296 295 293 290 288 287 287 285 282 280 279 279 278 278 278 277 276 275
296 296 299 299 300 299 299 298 299 301 303 303 302 302 303 302 302 302 303 302 303 305 302 296 294 294 293 291 289 287 286 286 285 282 280 279 279 279 279 278 278 276 276 276
296 297 297 299 299 299 299 301 299 300 303 305 301 303 302 301 302 302 302 305 303 297 295 294 294 291 290 289 287 285 285 285 283 282 281 280 280 279 279 279 278 278 277 277

GFSNW_925_thetae_126.txt.gz
Theta_e
300 299 300 301 300 303 303 302 306 299 301 302 304 308 308 308 310 311 311 309 309 310 311 311 312 310 309 309 308 310 309 313 314 314 313 313 312 313 313 315 315 318 318 317
298 299 301 301 300 303 302 304 299 300 300 305 306 306 306 308 309 311 309 308 307 310 314 312 314 312 309 307 307 311 311 312 315 316 314 313 312 312 311 311 312 314 316 314
299 299 300 301 301 302 303 299 301 297 300 303 307 308 308 308 308 309 308 307 307 309 309 308 310 310 309 306 306 306 310 312 315 319 320 316 315 312 310 311 316 317 318 308
297 299 299 300 301 301 302 303 304 302 301 300 304 308 308 308 310 308 309 308 307 308 308 308 306 308 309 307 307 304 308 314 313 313 313 314 312 311 310 310 311 316 311 307
297 298 299 300 301 301 302 301 305 305 304 303 302 306 310 309 309 309 308 307 307 307 306 306 306 306 308 306 306 305 308 314 311 313 312 313 315 311 310 310 308 308 307 304
297 298 299 300 301 301 301 302 303 306 307 306 305 305 307 309 308 309 307 307 308 307 305 304 305 306 307 306 307 309 312 312 313 313 314 313 316 314 311 310 309 309 311 306
297 298 300 300 300 300 301 302 304 306 308 307 307 305 306 308 308 310 308 306 306 305 305 304 303 304 304 304 304 307 311 312 312 313 316 318 310 309 308 308 307 305 304 302
299 299 300 300 301 300 302 302 304 307 308 307 306 306 306 307 308 309 307 305 304 305 304 304 301 302 302 302 303 304 305 310 312 312 314 311 309 308 309 308 308 305 304 302
298 298 299 300 300 300 302 302 303 306 308 308 305 307 305 309 309 307 305 305 306 305 304 303 301 304 304 304 304 303 305 311 311 312 312 311 310 307 306 307 311 304 304 302
298 299 299 299 300 300 301 302 303 305 307 307 308 308 308 308 308 307 306 304 305 306 305 305 304 307 306 307 311 312 311 312 311 312 310 309 304 304 304 309 309 303 303 303
303 304 303 300 300 300 301 302 303 306 307 308 308 307 307 308 307 307 305 304 304 305 305 303 305 309 310 309 310 310 311 311 312 312 311 312 302 303 307 305 303 301 300 298
304 304 304 305 303 301 301 303 302 304 308 304 305 305 306 306 305 305 304 305 303 304 305 306 307 310 312 308 313 309 311 309 312 307 306 300 300 303 302 301 301 299 297 295
304 307 308 308 306 302 302 304 304 304 303 303 303 304 302 302 302 303 304 303 304 305 307 310 311 308 308 311 310 309 307 306 307 305 301 300 301 300 300 299 299 297 296 294
302 302 305 306 304 302 304 304 303 303 304 304 303 301 301 302 302 304 303 305 304 307 309 308 309 310 308 312 310 310 307 305 304 303 300 298 299 299 298 297 297 296 295 294
301 302 302 303 303 303 303 303 303 302 305 304 303 301 301 301 302 303 304 305 306 306 306 308 308 307 307 307 307 307 305 306 306 309 302 301 298 297 296 295 294 293 292 292
300 301 302 302 302 302 302 302 302 301 301 303 304 302 302 302 302 303 304 305 306 305 305 308 307 306 307 308 308 304 304 304 303 302 300 296 295 295 294 293 293 292 291 290
300 300 301 302 302 302 303 303 302 301 301 304 303 304 302 301 302 303 303 303 304 304 304 304 305 305 305 307 307 303 301 301 300 298 296 295 294 294 293 292 291 290 289 289
300 300 301 300 300 301 301 301 301 302 302 302 304 303 302 301 303 302 302 303 303 304 304 303 305 304 305 305 303 301 300 299 298 297 298 296 295 294 292 291 289 289 288 287
299 300 300 300 300 301 300 302 303 303 304 305 305 303 302 302 303 303 302 303 306 302 304 304 304 305 305 305 302 300 299 299 298 298 297 296 294 292 291 291 290 289 287 286
298 300 301 302 298 297 300 302 304 304 303 303 305 302 303 303 304 304 304 304 304 304 304 302 305 306 303 302 301 300 300 299 298 297 296 295 293 292 292 291 290 288 287 285
300 302 302 298 298 302 303 306 305 304 303 304 303 303 304 303 305 305 303 306 304 304 304 304 304 305 303 301 301 300 299 299 298 297 296 295 293 292 292 290 288 287 285 283
300 299 299 300 302 306 302 302 302 302 301 303 304 304 304 304 304 304 303 303 304 307 304 305 304 305 302 301 300 299 298 298 297 296 296 294 293 292 290 288 287 285 283 281
299 300 299 301 303 303 306 301 302 302 303 304 304 304 303 303 304 305 303 303 305 303 304 303 306 303 301 300 299 298 297 296 295 295 294 293 292 290 288 285 282 281 279 277
303 302 299 303 301 301 302 304 303 302 304 304 305 305 303 303 302 303 303 303 303 304 304 305 304 302 300 297 295 294 293 292 291 290 287 284 283 282 282 281 280 278 276 276
300 299 299 299 298 298 299 300 303 305 305 305 305 305 303 303 301 303 301 302 302 303 305 303 301 299 296 295 293 291 289 288 287 285 283 281 280 280 279 278 278 277 276 276
297 298 301 300 300 300 300 301 303 305 305 306 305 304 304 303 303 303 303 303 303 305 300 298 297 296 294 292 291 290 289 288 286 284 281 280 280 279 279 279 278 276 276 276
298 299 298 300 299 299 299 301 302 303 305 305 303 304 303 302 303 302 304 305 300 298 295 295 295 294 292 290 289 287 287 286 284 282 281 280 281 280 279 279 277 277 277 278

GFSNW_925_thetae_129.txt.gz
Theta_e
300 299 298 299 301 304 303 302 304 301 302 302 303 304 307 307 306 307 309 310 312 310 308 309 308 309 310 309 309 310 309 313 315 312 312 311 312 315 317 314 313 311 314 307
297 297 300 299 300 303 303 302 300 301 301 304 304 303 305 305 305 307 308 309 310 309 308 306 309 310 309 307 309 311 311 312 313 314 314 314 315 312 311 311 309 308 305 302
296 297 297 298 300 302 302 299 300 299 301 302 303 303 304 306 305 306 306 308 308 308 309 309 306 311 310 307 307 307 310 313 314 314 315 315 318 315 310 310 304 307 310 307
297 298 298 298 300 301 302 301 300 299 300 301 303 304 306 305 305 307 306 307 309 308 307 308 307 309 309 308 307 305 307 310 313 313 312 312 313 314 311 311 309 312 309 306
296 296 295 298 299 301 302 300 300 299 300 300 301 302 303 306 307 305 305 308 308 308 306 305 306 306 308 308 307 306 305 308 309 309 309 311 312 310 307 310 308 307 307 303
295 296 295 295 298 300 302 301 302 301 301 300 300 301 303 304 306 306 305 307 307 307 306 305 303 303 304 307 307 306 306 309 311 312 312 315 314 309 307 310 309 309 308 304
296 296 296 295 295 299 301 301 302 301 302 303 302 303 301 302 303 307 306 307 307 305 302 303 303 303 305 306 306 306 309 311 311 312 309 313 310 309 309 310 308 304 302 300
295 296 296 296 296 298 300 301 300 302 303 301 304 304 304 302 303 305 306 307 306 303 303 304 304 303 304 304 305 304 305 310 310 310 311 310 309 308 309 310 308 303 302 298
296 296 296 296 296 297 299 300 301 300 302 303 302 303 304 303 302 303 306 305 303 303 303 304 305 304 303 303 303 303 304 309 307 309 312 310 308 305 305 306 308 304 301 298
295 296 296 296 296 297 299 300 301 302 301 301 303 302 303 304 303 304 305 305 305 303 303 306 305 303 304 306 307 303 303 306 309 309 310 308 304 303 304 308 304 304 303 300
295 295 296 296 297 299 299 300 300 301 302 302 302 303 303 305 304 304 304 303 303 305 305 304 302 304 305 305 309 307 305 310 310 309 309 308 302 302 306 303 300 297 296 294
295 296 296 298 299 299 300 300 300 301 302 302 303 303 304 305 305 302 302 302 302 302 302 303 302 304 306 309 312 310 312 309 308 306 304 300 301 303 301 300 297 295 294 293
295 297 298 298 298 299 299 300 300 301 302 302 302 303 303 305 306 304 301 302 302 302 304 305 306 305 307 308 307 308 307 307 303 301 300 300 301 300 299 298 297 295 294 292
299 300 301 300 299 299 299 300 301 301 302 302 302 301 302 302 303 302 302 302 303 304 305 305 305 306 307 307 307 307 305 304 302 301 300 299 299 299 298 297 297 295 294 292
302 301 301 302 302 300 300 300 301 301 302 302 301 301 301 302 302 304 302 303 304 304 304 304 305 304 305 304 305 305 304 303 300 300 298 297 297 296 295 294 294 293 293 292
307 307 306 303 304 301 301 302 301 302 302 301 302 300 301 301 303 304 304 304 303 302 302 304 303 306 304 303 303 304 303 302 301 299 296 295 295 295 293 292 292 292 291 291
303 304 305 304 302 301 301 301 302 302 302 301 302 302 301 302 303 302 302 303 302 302 302 301 303 303 304 300 304 303 300 298 296 295 295 295 294 294 293 293 292 291 290 288
302 302 302 301 302 301 301 301 301 301 301 301 302 303 303 301 301 301 301 301 301 301 302 301 302 302 303 301 302 300 299 298 297 295 296 294 294 293 292 291 289 289 287 286
300 301 301 301 301 300 300 301 302 302 302 301 301 302 302 301 301 300 300 301 301 300 301 301 302 301 301 302 300 299 298 298 297 297 294 294 293 292 290 289 288 287 286 285
299 299 298 297 298 302 302 302 300 302 302 302 301 300 301 301 300 301 300 300 300 301 301 300 300 301 302 301 299 298 298 298 298 296 295 293 291 290 289 288 287 286 285 282
299 298 298 297 300 303 301 297 299 300 301 301 300 301 302 301 302 301 300 300 300 303 301 300 300 301 299 299 298 297 298 298 296 295 293 292 290 289 288 287 286 284 283 281
300 299 300 301 302 300 299 297 299 298 302 301 301 300 301 301 300 299 300 301 300 304 299 299 300 299 299 298 297 297 297 297 296 295 293 291 290 290 287 286 285 283 282 281
296 299 298 300 298 298 297 298 300 299 299 300 301 301 299 300 299 297 299 299 299 298 296 298 300 297 298 296 296 295 295 294 294 293 292 291 289 288 286 282 282 282 280 279
298 297 296 298 297 299 301 301 300 298 300 301 300 299 299 296 297 298 298 298 300 299 297 303 300 297 294 295 294 292 288 290 289 287 286 284 282 281 282 282 282 280 277 276
296 297 297 297 297 298 296 295 299 300 299 298 299 299 299 297 299 299 298 300 298 299 299 301 297 294 292 292 291 288 284 282 282 282 280 279 280 279 279 280 280 278 276 276
296 297 296 295 295 299 301 299 301 298 296 297 299 300 297 299 298 300 298 301 300 301 298 297 295 292 291 290 289 288 285 283 281 281 280 280 279 278 278 277 277 276 276 277
297 297 296 293 298 299 298 299 297 295 298 298 299 298 301 299 299 301 300 301 298 295 294 294 293 292 291 289 287 287 285 284 282 280 280 279 279 279 278 276 276 276 276 276

GFSNW_925_thetae_132.txt.gz
Theta_e
299 299 300 300 302 303 303 303 299 302 302 304 304 305 304 305 304 305 307 309 310 310 308 308 305 308 308 308 308 310 310 311 311 311 310 310 310 312 314 315 317 312 309 307
298 299 300 299 301 303 302 300 301 301 302 305 304 301 304 304 304 305 307 308 309 307 305 304 306 308 308 307 308 309 309 311 310 310 313 314 316 314 311 311 308 308 305 302
296 297 298 299 299 302 301 298 301 300 301 300 301 302 302 303 304 304 304 306 306 307 308 307 304 310 309 306 307 310 310 311 311 312 314 314 315 315 313 311 305 306 307 302
298 297 297 297 299 301 302 298 296 298 301 302 301 301 302 302 303 304 304 305 305 306 306 307 307 306 308 307 308 305 306 307 311 310 311 311 311 311 313 313 310 310 302 307
298 297 295 296 298 300 301 300 300 297 297 300 302 301 301 302 304 303 305 305 305 305 306 305 304 305 306 307 306 304 304 302 306 306 309 310 309 308 309 312 309 306 307 306
297 297 295 297 297 299 301 300 299 297 299 298 300 300 300 301 302 302 303 303 303 304 305 304 303 302 303 305 305 305 305 304 308 308 308 310 311 309 310 308 308 307 307 304
297 297 296 296 296 298 301 301 300 301 300 299 300 300 300 300 301 303 304 304 303 304 302 302 302 302 302 303 303 305 305 305 307 309 309 307 304 309 309 310 309 303 301 299
297 297 296 296 295 295 298 301 300 297 301 300 300 300 301 300 300 301 302 302 304 301 303 305 306 303 303 304 304 305 305 307 311 310 310 306 309 307 308 310 308 302 300 297
297 297 297 295 294 295 298 299 301 300 299 299 300 302 302 300 299 300 301 302 302 301 302 304 306 306 304 304 304 304 304 306 308 309 310 308 306 304 304 307 308 302 298 296
296 296 296 296 294 295 298 297 299 300 300 299 300 300 299 302 301 301 303 303 304 303 304 305 304 303 303 303 304 304 305 306 307 308 309 307 304 303 303 309 305 301 298 296
295 295 295 295 295 294 297 297 298 298 300 300 299 299 300 300 301 302 302 301 301 304 305 306 303 303 303 303 304 304 304 305 306 307 308 307 302 301 305 300 296 295 295 296
294 294 294 295 295 295 297 296 297 298 299 300 300 300 301 301 301 301 302 301 301 302 302 303 301 303 304 303 305 309 307 307 308 306 304 300 301 301 299 297 295 293 292 291
294 294 294 295 295 295 296 296 297 298 299 299 299 300 301 303 303 303 303 301 300 301 300 302 304 302 302 305 307 310 309 305 302 301 299 300 301 299 298 297 295 293 292 291
294 294 294 295 295 295 295 296 297 298 299 300 300 300 299 299 302 304 304 303 301 300 301 302 302 305 306 306 307 305 304 303 301 300 299 298 299 299 298 295 293 292 291 290
294 294 295 295 295 295 296 297 297 299 299 301 301 300 301 301 302 303 303 302 301 302 303 303 303 303 304 303 303 304 303 302 299 300 298 296 298 297 296 296 294 292 292 291
295 295 295 295 295 295 297 299 297 298 300 300 302 300 301 301 302 301 301 301 302 303 302 302 302 303 304 302 301 303 302 301 299 298 297 293 296 294 294 293 292 292 292 291
294 295 295 295 296 296 298 299 299 298 300 300 301 301 301 302 302 301 301 302 303 302 301 301 303 303 302 299 303 302 299 296 295 295 295 295 294 294 292 292 292 292 290 289
300 299 300 298 297 298 298 299 299 299 300 301 302 302 302 301 301 301 300 301 301 300 300 300 302 301 301 301 301 299 296 295 295 295 294 294 294 293 292 291 291 287 285 285
304 302 301 301 299 300 300 299 300 300 299 300 300 302 302 300 299 299 299 300 301 299 300 300 300 299 302 301 300 298 297 297 296 295 293 293 293 293 291 288 287 285 285 284
302 301 299 296 300 300 301 301 302 301 302 300 299 297 299 300 300 300 300 299 300 301 300 298 300 301 301 301 299 297 296 296 295 293 294 293 292 291 288 287 286 285 285 283
301 298 300 301 301 301 299 299 300 299 302 300 298 300 301 300 301 301 299 299 298 302 301 300 300 302 298 297 297 296 296 297 295 294 292 292 291 288 287 286 286 284 283 281
299 300 299 299 299 297 299 299 298 298 303 298 301 300 301 300 299 299 299 300 298 301 297 298 299 297 297 296 296 295 294 294 293 293 291 289 288 288 286 285 284 283 281 280
298 296 295 297 295 297 296 297 299 301 297 299 301 301 299 298 296 295 296 298 298 296 294 298 298 295 296 295 294 293 294 294 292 290 290 289 287 287 285 282 282 282 280 279
296 295 295 296 296 300 301 300 300 297 300 301 300 297 299 294 296 292 297 296 298 297 296 301 295 296 294 292 291 290 288 290 291 289 288 285 284 282 283 283 282 281 278 278
296 296 296 295 296 297 297 295 298 299 299 299 297 296 297 295 297 296 297 299 298 299 297 297 292 294 292 291 290 288 284 284 281 282 281 280 280 280 279 280 281 280 277 277
295 296 295 296 300 301 300 300 300 295 294 295 297 298 296 297 296 298 295 299 298 296 298 294 291 293 291 288 288 285 282 281 280 280 280 279 279 279 278 279 279 278 277 277
295 297 295 295 298 300 299 298 298 293 296 296 297 297 299 297 298 300 300 297 298 296 295 292 292 291 289 287 286 284 282 280 279 279 279 279 279 279 277 275 276 276 277 277